TimeMDT,TemperatureF,Dew PointF,Humidity,Sea Level PressureIn,VisibilityMPH,Wind Direction,Wind SpeedMPH,Gust SpeedMPH,PrecipitationIn,Events,Conditions,WindDirDegrees,DateUTC
12:12 AM,44.6,30.2,57,30.45,10.0,West,9.2,-,N/A,,Overcast,280,2013-05-15 06:12:00
12:32 AM,44.6,30.2,57,30.44,10.0,WNW,12.7,16.1,N/A,,Overcast,290,2013-05-15 06:32:00
12:52 AM,44.6,28.4,53,30.44,10.0,WNW,5.8,-,N/A,,Overcast,290,2013-05-15 06:52:00
1:12 AM,44.6,28.4,53,30.43,10.0,West,4.6,-,N/A,,Overcast,270,2013-05-15 07:12:00
1:32 AM,44.6,26.6,49,30.42,10.0,West,11.5,-,N/A,,Overcast,280,2013-05-15 07:32:00
1:52 AM,44.6,26.6,49,30.41,10.0,West,9.2,-,N/A,,Mostly Cloudy,280,2013-05-15 07:52:00
2:12 AM,44.6,28.4,53,30.41,10.0,West,12.7,-,N/A,,Scattered Clouds,280,2013-05-15 08:12:00
2:32 AM,44.6,28.4,53,30.41,10.0,West,11.5,-,N/A,,Clear,280,2013-05-15 08:32:00
2:52 AM,44.6,28.4,53,30.41,10.0,West,12.7,-,N/A,,Clear,280,2013-05-15 08:52:00
3:12 AM,44.6,28.4,53,30.41,10.0,West,10.4,-,N/A,,Clear,280,2013-05-15 09:12:00
3:32 AM,44.6,28.4,53,30.40,10.0,West,11.5,-,N/A,,Clear,270,2013-05-15 09:32:00
3:52 AM,44.6,28.4,53,30.40,10.0,SSW,4.6,-,N/A,,Clear,200,2013-05-15 09:52:00
4:12 AM,44.6,28.4,53,30.40,10.0,West,10.4,-,N/A,,Scattered Clouds,270,2013-05-15 10:12:00
4:32 AM,44.6,26.6,49,30.40,10.0,West,10.4,-,N/A,,Scattered Clouds,270,2013-05-15 10:32:00
4:52 AM,44.6,26.6,49,30.40,10.0,West,12.7,-,N/A,,Clear,270,2013-05-15 10:52:00
5:12 AM,44.6,26.6,49,30.40,10.0,West,12.7,-,N/A,,Clear,260,2013-05-15 11:12:00
5:32 AM,44.6,28.4,53,30.40,10.0,West,17.3,-,N/A,,Clear,270,2013-05-15 11:32:00
5:52 AM,41.0,28.4,61,30.40,10.0,West,20.7,-,N/A,,Clear,260,2013-05-15 11:52:00
6:12 AM,41.0,28.4,61,30.40,10.0,West,19.6,-,N/A,,Clear,260,2013-05-15 12:12:00
6:22 AM,41.0,30.2,65,30.41,10.0,West,17.3,-,N/A,,Scattered Clouds,270,2013-05-15 12:22:00
7:32 AM,44.6,30.2,57,30.42,10.0,West,11.5,-,N/A,,Overcast,280,2013-05-15 13:32:00
7:52 AM,44.6,28.4,53,30.42,10.0,West,8.1,-,N/A,,Overcast,270,2013-05-15 13:52:00
8:12 AM,46.4,30.2,53,30.42,10.0,West,4.6,-,N/A,,Mostly Cloudy,260,2013-05-15 14:12:00
8:32 AM,46.4,30.2,53,30.42,10.0,West,6.9,-,N/A,,Scattered Clouds,270,2013-05-15 14:32:00
8:52 AM,46.4,30.2,53,30.42,10.0,West,9.2,-,N/A,,Clear,270,2013-05-15 14:52:00
9:12 AM,46.4,28.4,50,30.42,10.0,West,6.9,-,N/A,,Scattered Clouds,280,2013-05-15 15:12:00
9:32 AM,46.4,28.4,50,30.43,10.0,West,11.5,-,N/A,,Scattered Clouds,280,2013-05-15 15:32:00
9:52 AM,48.2,28.4,46,30.42,10.0,WNW,4.6,-,N/A,,Clear,290,2013-05-15 15:52:00
10:12 AM,48.2,28.4,46,30.42,10.0,West,5.8,-,N/A,,Clear,280,2013-05-15 16:12:00
10:32 AM,48.2,28.4,46,30.42,10.0,West,5.8,20.7,N/A,,Scattered Clouds,280,2013-05-15 16:32:00
10:52 AM,51.8,30.2,44,30.42,10.0,WNW,4.6,-,N/A,Thunderstorm,Clear,290,2013-05-15 16:52:00
11:12 AM,53.6,30.2,41,30.41,10.0,NW,4.6,-,N/A,Thunderstorm,Scattered Clouds,320,2013-05-15 17:12:00
11:32 AM,53.6,30.2,41,30.41,10.0,ENE,11.5,17.3,N/A,,Scattered Clouds,70,2013-05-15 17:32:00
11:52 AM,53.6,32.0,44,30.39,10.0,East,15.0,23.0,N/A,,Scattered Clouds,90,2013-05-15 17:52:00
12:12 PM,46.4,30.2,53,30.38,10.0,SE,15.0,20.7,N/A,,Clear,130,2013-05-15 18:12:00
12:32 PM,46.4,30.2,53,30.39,10.0,SE,8.1,-,N/A,,Clear,140,2013-05-15 18:32:00
12:52 PM,50.0,28.4,43,30.38,10.0,SSE,11.5,-,N/A,,Clear,160,2013-05-15 18:52:00
1:12 PM,50.0,28.4,43,30.38,10.0,WSW,4.6,-,N/A,Thunderstorm,Scattered Clouds,250,2013-05-15 19:12:00
1:32 PM,46.4,30.2,53,30.38,10.0,West,15.0,21.9,N/A,,Overcast,280,2013-05-15 19:32:00
1:52 PM,44.6,32.0,61,30.38,10.0,WNW,20.7,-,N/A,,Overcast,290,2013-05-15 19:52:00
2:12 PM,44.6,32.0,61,30.38,10.0,West,15.0,-,N/A,,Overcast,270,2013-05-15 20:12:00
2:32 PM,44.6,32.0,61,30.38,10.0,West,6.9,-,N/A,Thunderstorm,Thunderstorm,260,2013-05-15 20:32:00
2:52 PM,41.0,32.0,70,30.38,10.0,SW,12.7,-,N/A,Rain-Thunderstorm,Thunderstorms and Rain,230,2013-05-15 20:52:00
3:12 PM,37.4,33.8,87,30.40,0.8,South,21.9,-,0.02,Rain-Thunderstorm,Rain,190,2013-05-15 21:12:00
3:32 PM,37.4,33.8,87,30.40,2.5,South,19.6,-,0.04,Rain,Rain,190,2013-05-15 21:32:00
3:52 PM,37.4,33.8,87,30.38,1.5,South,21.9,-,0.05,Snow-Thunderstorm,Snow,170,2013-05-15 21:52:00
4:07 PM,37.4,33.8,87,30.37,0.2,SSE,13.8,-,N/A,Snow-Thunderstorm,Snow,150,2013-05-15 22:07:00
4:32 PM,37.4,33.8,87,30.36,10.0,South,11.5,-,0.04,Thunderstorm,Overcast,170,2013-05-15 22:32:00
4:52 PM,41.0,32.0,70,30.36,10.0,South,6.9,-,0.04,,Mostly Cloudy,180,2013-05-15 22:52:00
5:12 PM,44.6,35.6,71,30.36,10.0,West,5.8,-,N/A,,Mostly Cloudy,270,2013-05-15 23:12:00
5:32 PM,41.0,35.6,81,30.34,0.2,SSE,6.9,-,N/A,Thunderstorm,Haze,160,2013-05-15 23:32:00
5:52 PM,41.0,33.8,76,30.33,10.0,South,9.2,-,N/A,Thunderstorm,Scattered Clouds,180,2013-05-15 23:52:00
6:12 PM,41.0,33.8,76,30.35,10.0,WSW,4.6,-,N/A,,Clear,250,2013-05-16 00:12:00
6:32 PM,41.0,33.8,76,30.36,10.0,South,13.8,-,N/A,Thunderstorm,Thunderstorm,190,2013-05-16 00:32:00
6:52 PM,39.2,32.0,75,30.36,1.2,WSW,19.6,26.5,0.01,Rain-Thunderstorm,Heavy Thunderstorms and Rain,240,2013-05-16 00:52:00
7:12 PM,41.0,32.0,70,30.33,0.5,SSE,16.1,28.8,N/A,Rain-Thunderstorm,Light Thunderstorms and Rain,160,2013-05-16 01:12:00
7:32 PM,39.2,32.0,75,30.34,10.0,WSW,5.8,-,0.01,Thunderstorm,Overcast,240,2013-05-16 01:32:00
7:52 PM,41.0,33.8,76,30.35,10.0,South,9.2,16.1,0.01,,Overcast,190,2013-05-16 01:52:00
8:12 PM,41.0,33.8,76,30.36,10.0,SSW,10.4,16.1,N/A,,Overcast,200,2013-05-16 02:12:00
8:32 PM,41.0,33.8,76,30.36,7.0,South,17.3,24.2,N/A,Rain,Light Rain,170,2013-05-16 02:32:00
8:52 PM,37.4,33.8,87,30.36,1.0,South,19.6,-,N/A,Rain,Light Rain,180,2013-05-16 02:52:00
9:12 PM,37.4,33.8,87,30.33,0.2,South,8.1,-,N/A,Snow-Thunderstorm,Light Thunderstorms and Snow,180,2013-05-16 03:12:00
9:32 PM,41.0,32.0,70,30.34,10.0,SSW,9.2,-,N/A,,Overcast,200,2013-05-16 03:32:00
9:52 PM,41.0,32.0,70,30.35,10.0,West,8.1,-,N/A,Thunderstorm,Thunderstorm,260,2013-05-16 03:52:00
10:12 PM,39.2,32.0,75,30.36,10.0,WSW,6.9,-,N/A,,Mostly Cloudy,250,2013-05-16 04:12:00
10:32 PM,41.0,32.0,70,30.35,10.0,West,12.7,-,N/A,Thunderstorm,Scattered Clouds,260,2013-05-16 04:32:00
10:52 PM,41.0,32.0,70,30.33,10.0,South,11.5,-,N/A,,Scattered Clouds,190,2013-05-16 04:52:00
11:12 PM,37.4,32.0,81,30.33,10.0,West,13.8,-,N/A,,Clear,270,2013-05-16 05:12:00
11:32 PM,37.4,32.0,81,30.33,10.0,West,16.1,-,N/A,,Scattered Clouds,260,2013-05-16 05:32:00
11:52 PM,37.4,33.8,87,30.33,10.0,West,17.3,-,N/A,,Scattered Clouds,260,2013-05-16 05:52:00